Time,TemperatureF,DewpointF,PressureIn,WindDirection,WindDirectionDegrees,WindSpeedMPH,WindSpeedGustMPH,Humidity,HourlyPrecipIn,Conditions,Clouds,dailyrainin,SolarRadiationWatts/m^2,SoftwareType,DateUTC
2013-01-26 00:00:00,37.8,27.5,30.17,West,260,0.0,0.0,66,0.00,,---,0.00,0.00,VWS V14.01,2013-01-26 05:00:00,
2013-01-26 00:01:00,37.8,27.5,30.17,West,260,0.0,0.0,66,0.00,,---,0.00,0.00,VWS V14.01,2013-01-26 05:01:00,
2013-01-26 00:02:00,37.8,27.5,30.17,West,260,0.0,0.0,66,0.00,,---,0.00,0.00,VWS V14.01,2013-01-26 05:02:00,
2013-01-26 00:03:00,37.9,27.6,30.17,West,260,1.0,1.0,66,0.00,,---,0.00,0.00,VWS V14.01,2013-01-26 05:03:00,
2013-01-26 00:08:00,37.9,27.2,30.17,West,260,0.0,0.0,65,0.00,,---,0.00,0.00,VWS V14.01,2013-01-26 05:08:00,
2013-01-26 00:13:00,38.0,27.7,30.17,West,260,0.0,1.0,66,0.00,,---,0.00,0.00,VWS V14.01,2013-01-26 05:13:00,
2013-01-26 00:19:00,38.2,27.5,30.17,West,260,0.0,0.0,65,0.00,,---,0.00,0.00,VWS V14.01,2013-01-26 05:19:00,
2013-01-26 00:24:00,38.2,27.1,30.17,West,260,0.0,0.0,64,0.00,,---,0.00,0.00,VWS V14.01,2013-01-26 05:24:00,
2013-01-26 00:29:00,38.2,27.1,30.17,West,260,0.0,0.0,64,0.00,,---,0.00,0.00,VWS V14.01,2013-01-26 05:29:00,
2013-01-26 00:34:00,38.3,27.2,30.17,West,260,0.0,0.0,64,0.00,,---,0.00,0.00,VWS V14.01,2013-01-26 05:34:00,
2013-01-26 00:39:00,38.3,26.8,30.16,West,260,0.0,0.0,63,0.00,,---,0.00,0.00,VWS V14.01,2013-01-26 05:39:00,
2013-01-26 00:44:00,38.4,26.9,30.16,West,260,0.0,0.0,63,0.00,,---,0.00,0.00,VWS V14.01,2013-01-26 05:44:00,
2013-01-26 00:50:00,38.4,27.3,30.16,West,260,0.0,0.0,64,0.00,,---,0.00,0.00,VWS V14.01,2013-01-26 05:50:00,
2013-01-26 00:55:00,38.5,27.0,30.16,West,260,0.0,0.0,63,0.00,,---,0.00,0.00,VWS V14.01,2013-01-26 05:55:00,
2013-01-26 01:00:00,38.5,27.4,30.16,West,260,0.0,0.0,64,0.00,,---,0.00,0.00,VWS V14.01,2013-01-26 06:00:00,
2013-01-26 01:05:00,38.5,27.4,30.16,West,260,0.0,1.0,64,0.00,,---,0.00,0.00,VWS V14.01,2013-01-26 06:05:00,
2013-01-26 01:10:00,38.6,27.5,30.16,West,260,0.0,0.0,64,0.00,,---,0.00,0.00,VWS V14.01,2013-01-26 06:10:00,
2013-01-26 01:15:00,38.7,28.0,30.16,West,260,0.0,0.0,65,0.00,,---,0.00,0.00,VWS V14.01,2013-01-26 06:15:00,
2013-01-26 01:20:00,38.7,27.6,30.16,West,260,0.0,0.0,64,0.00,,---,0.00,0.00,VWS V14.01,2013-01-26 06:20:00,
2013-01-26 01:25:00,38.8,27.7,30.16,West,260,0.0,0.0,64,0.00,,---,0.00,0.00,VWS V14.01,2013-01-26 06:25:00,
2013-01-26 01:30:00,38.9,27.8,30.17,West,260,0.0,0.0,64,0.00,,---,0.00,0.00,VWS V14.01,2013-01-26 06:30:00,
2013-01-26 01:35:00,38.9,27.8,30.16,West,260,0.0,0.0,64,0.00,,---,0.00,0.00,VWS V14.01,2013-01-26 06:35:00,
2013-01-26 01:40:00,38.9,27.8,30.16,West,260,0.0,0.0,64,0.00,,---,0.00,0.00,VWS V14.01,2013-01-26 06:40:00,
2013-01-26 01:45:00,39.0,27.9,30.17,West,260,0.0,0.0,64,0.00,,---,0.00,0.00,VWS V14.01,2013-01-26 06:45:00,
2013-01-26 01:50:00,39.0,27.9,30.16,West,260,0.0,1.0,64,0.00,,---,0.00,0.00,VWS V14.01,2013-01-26 06:50:00,
2013-01-26 01:55:00,39.0,27.9,30.16,West,260,0.0,0.0,64,0.00,,---,0.00,0.00,VWS V14.01,2013-01-26 06:55:00,
2013-01-26 02:00:00,39.1,28.0,30.16,West,260,0.0,0.0,64,0.00,,---,0.00,0.00,VWS V14.01,2013-01-26 07:00:00,
2013-01-26 02:05:00,39.1,28.0,30.16,West,260,0.0,0.0,64,0.00,,---,0.00,0.00,VWS V14.01,2013-01-26 07:05:00,
2013-01-26 02:10:00,39.2,28.1,30.15,West,260,0.0,0.0,64,0.00,,---,0.00,0.00,VWS V14.01,2013-01-26 07:10:00,
2013-01-26 02:16:00,39.2,28.1,30.16,West,260,0.0,0.0,64,0.00,,---,0.00,0.00,VWS V14.01,2013-01-26 07:16:00,
2013-01-26 02:21:00,39.2,28.4,30.16,West,260,0.0,0.0,65,0.00,,---,0.00,0.00,VWS V14.01,2013-01-26 07:21:00,
2013-01-26 02:26:00,39.3,28.2,30.15,West,260,0.0,0.0,64,0.00,,---,0.00,0.00,VWS V14.01,2013-01-26 07:26:00,
2013-01-26 02:31:00,39.3,28.2,30.15,West,260,0.0,0.0,64,0.00,,---,0.00,0.00,VWS V14.01,2013-01-26 07:31:00,
2013-01-26 02:36:00,39.3,28.5,30.15,West,260,0.0,0.0,65,0.00,,---,0.00,0.00,VWS V14.01,2013-01-26 07:36:00,
2013-01-26 02:41:00,39.3,28.2,30.14,West,260,0.0,0.0,64,0.00,,---,0.00,0.00,VWS V14.01,2013-01-26 07:41:00,
2013-01-26 02:46:00,39.4,28.6,30.14,West,260,0.0,0.0,65,0.00,,---,0.00,0.00,VWS V14.01,2013-01-26 07:46:00,
2013-01-26 02:51:00,39.4,28.2,30.15,West,260,0.0,0.0,64,0.00,,---,0.00,0.00,VWS V14.01,2013-01-26 07:51:00,
2013-01-26 02:56:00,39.5,28.7,30.15,West,260,0.0,0.0,65,0.00,,---,0.00,0.00,VWS V14.01,2013-01-26 07:56:00,
2013-01-26 03:01:00,39.5,28.7,30.14,West,260,0.0,0.0,65,0.00,,---,0.00,0.00,VWS V14.01,2013-01-26 08:01:00,
2013-01-26 03:06:00,39.5,28.7,30.14,West,260,0.0,0.0,65,0.00,,---,0.00,0.00,VWS V14.01,2013-01-26 08:06:00,
2013-01-26 03:11:00,39.6,28.8,30.14,West,260,0.0,0.0,65,0.00,,---,0.00,0.00,VWS V14.01,2013-01-26 08:11:00,
2013-01-26 03:16:00,39.6,28.8,30.14,West,260,0.0,0.0,65,0.00,,---,0.00,0.00,VWS V14.01,2013-01-26 08:16:00,
2013-01-26 03:21:00,39.6,28.8,30.14,West,260,0.0,0.0,65,0.00,,---,0.00,0.00,VWS V14.01,2013-01-26 08:21:00,
2013-01-26 03:26:00,39.6,28.8,30.14,West,260,0.0,0.0,65,0.00,,---,0.00,0.00,VWS V14.01,2013-01-26 08:26:00,
2013-01-26 03:31:00,39.7,28.9,30.14,West,260,0.0,2.0,65,0.00,,---,0.00,0.00,VWS V14.01,2013-01-26 08:31:00,
2013-01-26 03:36:00,39.7,28.9,30.14,West,260,0.0,2.0,65,0.00,,---,0.00,0.00,VWS V14.01,2013-01-26 08:36:00,
2013-01-26 03:41:00,39.8,29.4,30.13,West,260,0.0,0.0,66,0.00,,---,0.00,0.00,VWS V14.01,2013-01-26 08:41:00,
2013-01-26 03:46:00,39.8,29.0,30.13,West,260,0.0,1.0,65,0.00,,---,0.00,0.00,VWS V14.01,2013-01-26 08:46:00,
2013-01-26 03:51:00,39.9,29.1,30.13,West,260,0.0,2.0,65,0.00,,---,0.00,0.00,VWS V14.01,2013-01-26 08:51:00,
2013-01-26 03:56:00,40.0,29.2,30.13,West,260,0.0,1.0,65,0.00,,---,0.00,0.00,VWS V14.01,2013-01-26 08:56:00,
2013-01-26 04:01:00,40.0,29.2,30.13,West,260,2.0,2.0,65,0.00,,---,0.00,0.00,VWS V14.01,2013-01-26 09:01:00,
2013-01-26 04:06:00,40.0,29.2,30.13,West,260,0.0,3.0,65,0.00,,---,0.00,0.00,VWS V14.01,2013-01-26 09:06:00,
2013-01-26 04:11:00,40.0,29.2,30.13,West,260,1.0,2.0,65,0.00,,---,0.00,0.00,VWS V14.01,2013-01-26 09:11:00,
2013-01-26 04:16:00,40.1,29.3,30.13,West,260,0.0,1.0,65,0.00,,---,0.00,0.00,VWS V14.01,2013-01-26 09:16:00,
2013-01-26 04:21:00,40.1,29.3,30.13,West,260,0.0,0.0,65,0.00,,---,0.00,0.00,VWS V14.01,2013-01-26 09:21:00,
2013-01-26 04:26:00,40.1,29.3,30.13,West,260,0.0,0.0,65,0.00,,---,0.00,0.00,VWS V14.01,2013-01-26 09:26:00,
2013-01-26 04:31:00,40.1,29.3,30.13,West,260,0.0,2.0,65,0.00,,---,0.00,0.00,VWS V14.01,2013-01-26 09:31:00,
2013-01-26 04:36:00,40.1,29.3,30.13,West,260,0.0,3.0,65,0.00,,---,0.00,0.00,VWS V14.01,2013-01-26 09:36:00,
2013-01-26 04:41:00,40.1,29.3,30.13,West,260,0.0,2.0,65,0.00,,---,0.00,0.00,VWS V14.01,2013-01-26 09:41:00,
2013-01-26 04:47:00,40.0,29.2,30.13,West,260,0.0,0.0,65,0.00,,---,0.00,0.00,VWS V14.01,2013-01-26 09:47:00,
2013-01-26 04:52:00,39.8,29.4,30.12,West,260,0.0,0.0,66,0.00,,---,0.00,0.00,VWS V14.01,2013-01-26 09:52:00,
2013-01-26 04:57:00,39.7,29.3,30.12,West,260,0.0,0.0,66,0.00,,---,0.00,0.00,VWS V14.01,2013-01-26 09:57:00,
2013-01-26 05:02:00,39.6,29.6,30.12,West,260,0.0,0.0,67,0.00,,---,0.00,0.00,VWS V14.01,2013-01-26 10:02:00,
2013-01-26 05:07:00,39.4,29.4,30.12,West,260,0.0,0.0,67,0.00,,---,0.00,0.00,VWS V14.01,2013-01-26 10:07:00,
2013-01-26 05:12:00,39.2,29.5,30.13,West,260,0.0,0.0,68,0.00,,---,0.00,0.00,VWS V14.01,2013-01-26 10:12:00,
2013-01-26 05:17:00,38.9,29.6,30.13,North,360,0.0,0.0,69,0.00,,---,0.00,0.00,VWS V14.01,2013-01-26 10:17:00,
2013-01-26 05:22:00,38.6,30.0,30.13,West,260,0.0,0.0,71,0.00,,---,0.00,0.00,VWS V14.01,2013-01-26 10:22:00,
2013-01-26 05:27:00,38.5,30.3,30.12,West,260,0.0,0.0,72,0.00,,---,0.00,0.00,VWS V14.01,2013-01-26 10:27:00,
2013-01-26 05:32:00,38.5,30.3,30.13,West,260,0.0,0.0,72,0.00,,---,0.00,0.00,VWS V14.01,2013-01-26 10:32:00,
2013-01-26 05:37:00,38.5,30.6,30.12,West,260,0.0,0.0,73,0.00,,---,0.00,0.00,VWS V14.01,2013-01-26 10:37:00,
2013-01-26 05:44:00,38.4,30.5,30.13,West,260,0.0,0.0,73,0.00,,---,0.00,0.00,VWS V14.01,2013-01-26 10:44:00,
2013-01-26 05:49:00,38.4,30.5,30.13,West,260,0.0,0.0,73,0.00,,---,0.00,0.00,VWS V14.01,2013-01-26 10:49:00,
2013-01-26 05:54:00,38.3,30.4,30.13,West,260,0.0,1.0,73,0.00,,---,0.00,0.00,VWS V14.01,2013-01-26 10:54:00,
2013-01-26 05:59:00,38.1,30.6,30.14,West,261,0.0,0.0,74,0.00,,---,0.00,0.00,VWS V14.01,2013-01-26 10:59:00,
2013-01-26 06:04:00,38.0,30.5,30.14,West,261,0.0,0.0,74,0.00,,---,0.00,0.00,VWS V14.01,2013-01-26 11:04:00,
2013-01-26 06:09:00,37.9,30.4,30.14,West,261,0.0,0.0,74,0.00,,---,0.00,0.00,VWS V14.01,2013-01-26 11:09:00,
2013-01-26 06:14:00,37.7,30.2,30.15,West,261,0.0,0.0,74,0.00,,---,0.00,0.00,VWS V14.01,2013-01-26 11:14:00,
2013-01-26 06:19:00,37.5,30.0,30.15,West,261,0.0,0.0,74,0.00,,---,0.00,0.00,VWS V14.01,2013-01-26 11:19:00,
2013-01-26 06:24:00,37.4,29.9,30.15,West,261,0.0,0.0,74,0.00,,---,0.00,0.00,VWS V14.01,2013-01-26 11:24:00,
2013-01-26 06:29:00,37.1,30.2,30.15,West,261,0.0,2.0,76,0.00,,---,0.00,0.00,VWS V14.01,2013-01-26 11:29:00,
2013-01-26 06:35:00,36.9,29.7,30.16,West,261,0.0,1.0,75,0.00,,---,0.00,0.00,VWS V14.01,2013-01-26 11:35:00,
2013-01-26 06:40:00,36.9,29.7,30.16,West,261,0.0,0.0,75,0.00,,---,0.00,0.00,VWS V14.01,2013-01-26 11:40:00,
2013-01-26 06:45:00,36.8,29.6,30.16,West,261,0.0,0.0,75,0.00,,---,0.00,0.00,VWS V14.01,2013-01-26 11:45:00,
2013-01-26 06:50:00,36.8,29.6,30.16,West,261,0.0,0.0,75,0.00,,---,0.00,0.00,VWS V14.01,2013-01-26 11:50:00,
2013-01-26 06:55:00,36.8,29.6,30.16,West,261,0.0,0.0,75,0.00,,---,0.00,0.00,VWS V14.01,2013-01-26 11:55:00,
2013-01-26 07:00:00,36.6,29.8,30.16,West,261,0.0,0.0,76,0.00,,---,0.00,0.00,VWS V14.01,2013-01-26 12:00:00,
2013-01-26 07:05:00,36.4,29.6,30.16,West,261,0.0,0.0,76,0.00,,---,0.00,0.00,VWS V14.01,2013-01-26 12:05:00,
2013-01-26 07:10:00,36.2,29.4,30.16,West,261,0.0,0.0,76,0.00,,---,0.00,0.00,VWS V14.01,2013-01-26 12:10:00,
2013-01-26 07:15:00,36.0,29.5,30.16,West,261,0.0,0.0,77,0.00,,---,0.00,0.00,VWS V14.01,2013-01-26 12:15:00,
2013-01-26 07:20:00,35.8,29.3,30.17,West,261,0.0,0.0,77,0.00,,---,0.00,0.00,VWS V14.01,2013-01-26 12:20:00,
2013-01-26 07:25:00,35.6,29.4,30.17,West,261,0.0,0.0,78,0.00,,---,0.00,5.00,VWS V14.01,2013-01-26 12:25:00,
2013-01-26 07:30:00,35.5,29.3,30.17,West,261,0.0,0.0,78,0.00,,---,0.00,9.00,VWS V14.01,2013-01-26 12:30:00,
2013-01-26 07:35:00,35.4,29.5,30.17,West,261,0.0,0.0,79,0.00,,---,0.00,11.00,VWS V14.01,2013-01-26 12:35:00,
2013-01-26 07:40:00,35.3,29.8,30.17,West,261,0.0,0.0,80,0.00,,---,0.00,14.00,VWS V14.01,2013-01-26 12:40:00,
2013-01-26 07:46:00,35.2,29.7,30.17,West,261,0.0,0.0,80,0.00,,---,0.00,21.00,VWS V14.01,2013-01-26 12:46:00,
2013-01-26 07:51:00,35.2,30.0,30.17,West,261,0.0,0.0,81,0.00,,---,0.00,25.00,VWS V14.01,2013-01-26 12:51:00,
2013-01-26 07:56:00,35.2,30.0,30.18,West,261,0.0,0.0,81,0.00,,---,0.00,32.00,VWS V14.01,2013-01-26 12:56:00,
2013-01-26 08:01:00,35.2,30.0,30.18,West,261,0.0,0.0,81,0.00,,---,0.00,39.00,VWS V14.01,2013-01-26 13:01:00,
2013-01-26 08:06:00,35.2,30.0,30.18,West,261,0.0,0.0,81,0.00,,---,0.00,51.00,VWS V14.01,2013-01-26 13:06:00,
2013-01-26 08:11:00,35.3,30.1,30.18,WSW,254,0.0,0.0,81,0.00,,---,0.00,72.00,VWS V14.01,2013-01-26 13:11:00,
2013-01-26 08:16:00,35.5,30.6,30.18,West,261,0.0,0.0,82,0.00,,---,0.00,83.00,VWS V14.01,2013-01-26 13:16:00,
2013-01-26 08:21:00,35.8,30.9,30.18,West,261,0.0,0.0,82,0.00,,---,0.00,88.00,VWS V14.01,2013-01-26 13:21:00,
2013-01-26 08:26:00,36.2,31.2,30.19,West,261,0.0,0.0,82,0.00,,---,0.00,86.00,VWS V14.01,2013-01-26 13:26:00,
2013-01-26 08:31:00,36.6,31.6,30.19,West,261,0.0,0.0,82,0.00,,---,0.00,90.00,VWS V14.01,2013-01-26 13:31:00,
2013-01-26 08:36:00,37.0,31.7,30.19,West,261,0.0,0.0,81,0.00,,---,0.00,102.00,VWS V14.01,2013-01-26 13:36:00,
2013-01-26 08:42:00,37.4,32.1,30.19,West,261,0.0,0.0,81,0.00,,---,0.00,109.00,VWS V14.01,2013-01-26 13:42:00,
2013-01-26 08:47:00,37.8,31.9,30.20,West,261,0.0,1.0,79,0.00,,---,0.00,123.00,VWS V14.01,2013-01-26 13:47:00,
2013-01-26 08:52:00,38.1,31.9,30.20,West,261,0.0,0.0,78,0.00,,---,0.00,121.00,VWS V14.01,2013-01-26 13:52:00,
2013-01-26 08:57:00,38.4,32.2,30.20,West,261,0.0,0.0,78,0.00,,---,0.00,128.00,VWS V14.01,2013-01-26 13:57:00,
2013-01-26 09:02:00,38.7,31.8,30.20,West,261,0.0,0.0,76,0.00,,---,0.00,139.00,VWS V14.01,2013-01-26 14:02:00,
2013-01-26 09:07:00,38.9,31.7,30.21,West,261,0.0,0.0,75,0.00,,---,0.00,144.00,VWS V14.01,2013-01-26 14:07:00,
2013-01-26 09:12:00,39.3,32.0,30.21,West,261,0.0,0.0,75,0.00,,---,0.00,225.00,VWS V14.01,2013-01-26 14:12:00,
2013-01-26 09:17:00,39.8,32.5,30.21,West,261,0.0,2.0,75,0.00,,---,0.00,269.00,VWS V14.01,2013-01-26 14:17:00,
2013-01-26 09:22:00,40.4,32.8,30.21,West,263,3.0,3.0,74,0.00,,---,0.00,313.00,VWS V14.01,2013-01-26 14:22:00,
2013-01-26 09:27:00,41.1,33.5,30.21,West,264,0.0,0.0,74,0.00,,---,0.00,271.00,VWS V14.01,2013-01-26 14:27:00,
2013-01-26 09:32:00,41.9,33.5,30.21,West,264,0.0,3.0,72,0.00,,---,0.00,162.00,VWS V14.01,2013-01-26 14:32:00,
2013-01-26 09:37:00,42.5,34.1,30.21,West,267,0.0,4.0,72,0.00,,---,0.00,171.00,VWS V14.01,2013-01-26 14:37:00,
2013-01-26 09:43:00,43.0,34.2,30.22,West,267,2.0,4.0,71,0.00,,---,0.00,221.00,VWS V14.01,2013-01-26 14:43:00,
2013-01-26 09:48:00,43.4,34.6,30.22,West,267,0.0,4.0,71,0.00,,---,0.00,155.00,VWS V14.01,2013-01-26 14:48:00,
2013-01-26 09:53:00,43.7,34.6,30.22,West,272,2.0,4.0,70,0.00,,---,0.00,146.00,VWS V14.01,2013-01-26 14:53:00,
2013-01-26 09:58:00,44.0,34.9,30.22,West,272,2.0,2.0,70,0.00,,---,0.00,137.00,VWS V14.01,2013-01-26 14:58:00,
2013-01-26 10:03:00,44.2,35.0,30.22,West,272,0.0,0.0,70,0.00,,---,0.00,134.00,VWS V14.01,2013-01-26 15:03:00,
2013-01-26 10:08:00,44.3,34.8,30.23,West,272,0.0,0.0,69,0.00,,---,0.00,139.00,VWS V14.01,2013-01-26 15:08:00,
2013-01-26 10:13:00,44.5,35.0,30.23,West,272,0.0,1.0,69,0.00,,---,0.00,260.00,VWS V14.01,2013-01-26 15:13:00,
2013-01-26 10:18:00,45.4,35.8,30.23,West,272,0.0,2.0,69,0.00,,---,0.00,348.00,VWS V14.01,2013-01-26 15:18:00,
2013-01-26 10:23:00,46.1,35.8,30.23,West,273,0.0,3.0,67,0.00,,---,0.00,329.00,VWS V14.01,2013-01-26 15:23:00,
2013-01-26 10:28:00,46.6,36.6,30.23,North,360,3.0,5.0,68,0.00,,---,0.00,360.00,VWS V14.01,2013-01-26 15:28:00,
2013-01-26 10:33:00,46.9,36.5,30.24,North,9,0.0,4.0,67,0.00,,---,0.00,408.00,VWS V14.01,2013-01-26 15:33:00,
2013-01-26 10:38:00,47.4,37.0,30.24,North,5,0.0,6.0,67,0.00,,---,0.00,494.00,VWS V14.01,2013-01-26 15:38:00,
2013-01-26 10:43:00,47.8,37.0,30.23,North,5,0.0,6.0,66,0.00,,---,0.00,512.00,VWS V14.01,2013-01-26 15:43:00,
2013-01-26 10:49:00,48.1,37.3,30.24,North,5,0.0,3.0,66,0.00,,---,0.00,541.00,VWS V14.01,2013-01-26 15:49:00,
2013-01-26 10:54:00,48.5,36.9,30.24,WNW,303,4.0,4.0,64,0.00,,---,0.00,533.00,VWS V14.01,2013-01-26 15:54:00,
2013-01-26 10:59:00,49.1,37.1,30.24,NNW,344,3.0,5.0,63,0.00,,---,0.00,510.00,VWS V14.01,2013-01-26 15:59:00,
2013-01-26 11:04:00,50.1,38.4,30.24,North,355,0.0,0.0,64,0.00,,---,0.00,526.00,VWS V14.01,2013-01-26 16:04:00,
2013-01-26 11:09:00,50.7,38.2,30.24,North,355,6.0,6.0,62,0.00,,---,0.00,547.00,VWS V14.01,2013-01-26 16:09:00,
2013-01-26 11:14:00,50.9,38.0,30.24,North,360,0.0,7.0,61,0.00,,---,0.00,585.00,VWS V14.01,2013-01-26 16:14:00,
2013-01-26 11:19:00,51.5,38.1,30.24,NW,317,0.0,3.0,60,0.00,,---,0.00,589.00,VWS V14.01,2013-01-26 16:19:00,
2013-01-26 11:24:00,51.9,38.0,30.24,NNW,345,4.0,4.0,59,0.00,,---,0.00,628.00,VWS V14.01,2013-01-26 16:24:00,
2013-01-26 11:29:00,52.6,38.7,30.24,NNW,331,0.0,4.0,59,0.00,,---,0.00,608.00,VWS V14.01,2013-01-26 16:29:00,
2013-01-26 11:34:00,53.0,39.1,30.23,NNW,331,0.0,0.0,59,0.00,,---,0.00,568.00,VWS V14.01,2013-01-26 16:34:00,
2013-01-26 11:39:00,53.9,39.5,30.23,NE,44,3.0,8.0,58,0.00,,---,0.00,392.00,VWS V14.01,2013-01-26 16:39:00,
2013-01-26 11:44:00,54.4,39.0,30.23,North,355,3.0,4.0,56,0.00,,---,0.00,390.00,VWS V14.01,2013-01-26 16:44:00,
2013-01-26 11:49:00,55.0,38.7,30.23,NNW,340,0.0,6.0,54,0.00,,---,0.00,343.00,VWS V14.01,2013-01-26 16:49:00,
2013-01-26 11:54:00,55.5,39.6,30.23,North,351,2.0,7.0,55,0.00,,---,0.00,413.00,VWS V14.01,2013-01-26 16:54:00,
2013-01-26 12:00:00,55.6,39.2,30.23,North,355,3.0,4.0,54,0.00,,---,0.00,304.00,VWS V14.01,2013-01-26 17:00:00,
2013-01-26 12:05:00,55.7,38.8,30.23,North,355,4.0,6.0,53,0.00,,---,0.00,311.00,VWS V14.01,2013-01-26 17:05:00,
2013-01-26 12:10:00,55.8,38.5,30.22,North,355,0.0,4.0,52,0.00,,---,0.00,309.00,VWS V14.01,2013-01-26 17:10:00,
2013-01-26 12:15:00,55.9,39.0,30.22,North,5,0.0,5.0,53,0.00,,---,0.00,278.00,VWS V14.01,2013-01-26 17:15:00,
2013-01-26 12:20:00,56.0,38.6,30.22,North,11,1.0,3.0,52,0.00,,---,0.00,339.00,VWS V14.01,2013-01-26 17:20:00,
2013-01-26 12:25:00,56.1,38.7,30.22,NNE,17,2.0,5.0,52,0.00,,---,0.00,420.00,VWS V14.01,2013-01-26 17:25:00,
2013-01-26 12:30:00,56.3,38.4,30.21,NE,38,0.0,7.0,51,0.00,,---,0.00,376.00,VWS V14.01,2013-01-26 17:30:00,
2013-01-26 12:35:00,56.5,38.1,30.21,ENE,61,0.0,6.0,50,0.00,,---,0.00,478.00,VWS V14.01,2013-01-26 17:35:00,
2013-01-26 12:40:00,56.8,38.4,30.21,North,355,1.0,6.0,50,0.00,,---,0.00,443.00,VWS V14.01,2013-01-26 17:40:00,
2013-01-26 12:45:00,57.1,37.1,30.20,NNE,17,2.0,6.0,47,0.00,,---,0.00,418.00,VWS V14.01,2013-01-26 17:45:00,
2013-01-26 12:50:00,57.3,38.3,30.21,North,5,6.0,6.0,49,0.00,,---,0.00,420.00,VWS V14.01,2013-01-26 17:50:00,
2013-01-26 12:55:00,57.6,37.5,30.21,North,355,2.0,3.0,47,0.00,,---,0.00,352.00,VWS V14.01,2013-01-26 17:55:00,
2013-01-26 13:00:00,57.7,38.2,30.21,North,355,1.0,2.0,48,0.00,,---,0.00,570.00,VWS V14.01,2013-01-26 18:00:00,
2013-01-26 13:05:00,58.0,37.9,30.20,NNE,12,4.0,6.0,47,0.00,,---,0.00,729.00,VWS V14.01,2013-01-26 18:05:00,
2013-01-26 13:11:00,58.1,38.0,30.20,NNE,13,0.0,3.0,47,0.00,,---,0.00,420.00,VWS V14.01,2013-01-26 18:11:00,
2013-01-26 13:16:00,58.5,36.7,30.20,ENE,67,2.0,4.0,44,0.00,,---,0.00,728.00,VWS V14.01,2013-01-26 18:16:00,
2013-01-26 13:21:00,58.7,36.9,30.20,NNE,26,3.0,4.0,44,0.00,,---,0.00,733.00,VWS V14.01,2013-01-26 18:21:00,
2013-01-26 13:26:00,59.4,37.5,30.20,NE,45,3.0,4.0,44,0.00,,---,0.00,717.00,VWS V14.01,2013-01-26 18:26:00,
2013-01-26 13:31:00,59.7,37.8,30.20,East,98,0.0,5.0,44,0.00,,---,0.00,705.00,VWS V14.01,2013-01-26 18:31:00,
2013-01-26 13:36:00,60.1,38.1,30.20,West,271,0.0,8.0,44,0.00,,---,0.00,524.00,VWS V14.01,2013-01-26 18:36:00,
2013-01-26 13:41:00,60.7,36.3,30.20,North,355,0.0,8.0,40,0.00,,---,0.00,559.00,VWS V14.01,2013-01-26 18:41:00,
2013-01-26 13:46:00,60.8,37.0,30.19,North,360,0.0,7.0,41,0.00,,---,0.00,717.00,VWS V14.01,2013-01-26 18:46:00,
2013-01-26 13:51:00,61.1,36.6,30.19,North,5,4.0,5.0,40,0.00,,---,0.00,404.00,VWS V14.01,2013-01-26 18:51:00,
2013-01-26 13:56:00,61.1,36.0,30.19,WNW,290,2.0,5.0,39,0.00,,---,0.00,471.00,VWS V14.01,2013-01-26 18:56:00,
2013-01-26 14:01:00,60.9,35.1,30.19,NW,322,0.0,5.0,38,0.00,,---,0.00,552.00,VWS V14.01,2013-01-26 19:01:00,
2013-01-26 14:06:00,60.6,34.2,30.19,NW,322,0.0,3.0,37,0.00,,---,0.00,353.00,VWS V14.01,2013-01-26 19:06:00,
2013-01-26 14:11:00,60.4,34.7,30.18,NW,322,4.0,4.0,38,0.00,,---,0.00,329.00,VWS V14.01,2013-01-26 19:11:00,
2013-01-26 14:16:00,60.3,34.6,30.19,NW,323,2.0,4.0,38,0.00,,---,0.00,330.00,VWS V14.01,2013-01-26 19:16:00,
2013-01-26 14:21:00,60.4,36.0,30.18,NW,321,0.0,4.0,40,0.00,,---,0.00,557.00,VWS V14.01,2013-01-26 19:21:00,
2013-01-26 14:26:00,60.9,35.8,30.18,NW,323,0.0,5.0,39,0.00,,---,0.00,408.00,VWS V14.01,2013-01-26 19:26:00,
2013-01-26 14:32:00,61.0,34.6,30.18,NW,323,0.0,0.0,37,0.00,,---,0.00,341.00,VWS V14.01,2013-01-26 19:32:00,
2013-01-26 14:37:00,60.7,35.0,30.18,NW,323,0.0,0.0,38,0.00,,---,0.00,299.00,VWS V14.01,2013-01-26 19:37:00,
2013-01-26 14:42:00,60.7,35.6,30.18,NW,323,0.0,0.0,39,0.00,,---,0.00,318.00,VWS V14.01,2013-01-26 19:42:00,
2013-01-26 14:47:00,61.1,36.6,30.18,NNW,327,0.0,4.0,40,0.00,,---,0.00,441.00,VWS V14.01,2013-01-26 19:47:00,
2013-01-26 14:52:00,61.8,37.2,30.18,NNW,327,0.0,0.0,40,0.00,,---,0.00,494.00,VWS V14.01,2013-01-26 19:52:00,
2013-01-26 14:57:00,62.3,36.4,30.18,NNW,338,2.0,3.0,38,0.00,,---,0.00,396.00,VWS V14.01,2013-01-26 19:57:00,
2013-01-26 15:02:00,61.7,35.2,30.18,NNW,340,1.0,3.0,37,0.00,,---,0.00,369.00,VWS V14.01,2013-01-26 20:02:00,
2013-01-26 15:07:00,61.4,35.6,30.18,NNW,340,0.0,1.0,38,0.00,,---,0.00,404.00,VWS V14.01,2013-01-26 20:07:00,
2013-01-26 15:12:00,61.5,35.7,30.18,NNW,347,0.0,2.0,38,0.00,,---,0.00,258.00,VWS V14.01,2013-01-26 20:12:00,
2013-01-26 15:17:00,61.3,36.2,30.18,NNW,347,0.0,1.0,39,0.00,,---,0.00,253.00,VWS V14.01,2013-01-26 20:17:00,
2013-01-26 15:22:00,61.3,35.5,30.19,North,350,0.0,0.0,38,0.00,,---,0.00,332.00,VWS V14.01,2013-01-26 20:22:00,
2013-01-26 15:27:00,61.3,34.8,30.19,North,350,2.0,3.0,37,0.00,,---,0.00,329.00,VWS V14.01,2013-01-26 20:27:00,
2013-01-26 15:32:00,61.2,34.1,30.19,North,350,0.0,0.0,36,0.00,,---,0.00,367.00,VWS V14.01,2013-01-26 20:32:00,
2013-01-26 15:37:00,61.6,35.1,30.19,North,350,0.0,0.0,37,0.00,,---,0.00,271.00,VWS V14.01,2013-01-26 20:37:00,
2013-01-26 15:43:00,61.5,34.3,30.19,North,350,1.0,1.0,36,0.00,,---,0.00,294.00,VWS V14.01,2013-01-26 20:43:00,
2013-01-26 15:48:00,61.3,34.8,30.19,North,351,5.0,5.0,37,0.00,,---,0.00,276.00,VWS V14.01,2013-01-26 20:48:00,
2013-01-26 15:53:00,61.3,36.2,30.19,North,355,1.0,4.0,39,0.00,,---,0.00,288.00,VWS V14.01,2013-01-26 20:53:00,
2013-01-26 15:58:00,61.0,34.6,30.19,North,355,0.0,2.0,37,0.00,,---,0.00,360.00,VWS V14.01,2013-01-26 20:58:00,
2013-01-26 16:03:00,61.0,35.2,30.19,North,355,0.0,1.0,38,0.00,,---,0.00,272.00,VWS V14.01,2013-01-26 21:03:00,
2013-01-26 16:08:00,61.1,35.3,30.19,North,360,1.0,1.0,38,0.00,,---,0.00,200.00,VWS V14.01,2013-01-26 21:08:00,
2013-01-26 16:14:00,60.8,34.4,30.19,NNE,17,2.0,4.0,37,0.00,,---,0.00,279.00,VWS V14.01,2013-01-26 21:14:00,
2013-01-26 16:19:00,60.7,34.3,30.19,NNE,19,0.0,1.0,37,0.00,,---,0.00,264.00,VWS V14.01,2013-01-26 21:19:00,
2013-01-26 16:24:00,60.6,34.2,30.19,NNE,19,0.0,3.0,37,0.00,,---,0.00,248.00,VWS V14.01,2013-01-26 21:24:00,
2013-01-26 16:29:00,60.6,33.5,30.19,NNE,19,0.0,3.0,36,0.00,,---,0.00,221.00,VWS V14.01,2013-01-26 21:29:00,
2013-01-26 16:34:00,60.5,33.4,30.19,NNE,19,0.0,1.0,36,0.00,,---,0.00,186.00,VWS V14.01,2013-01-26 21:34:00,
2013-01-26 16:39:00,60.5,33.4,30.20,NNE,19,2.0,3.0,36,0.00,,---,0.00,86.00,VWS V14.01,2013-01-26 21:39:00,
2013-01-26 16:44:00,60.6,33.5,30.20,NNW,332,1.0,1.0,36,0.00,,---,0.00,69.00,VWS V14.01,2013-01-26 21:44:00,
2013-01-26 16:49:00,60.6,33.5,30.20,NNW,334,0.0,2.0,36,0.00,,---,0.00,114.00,VWS V14.01,2013-01-26 21:49:00,
2013-01-26 16:54:00,60.5,33.4,30.20,NNW,334,0.0,1.0,36,0.00,,---,0.00,49.00,VWS V14.01,2013-01-26 21:54:00,
2013-01-26 16:59:00,60.4,33.3,30.20,NNW,334,0.0,2.0,36,0.00,,---,0.00,86.00,VWS V14.01,2013-01-26 21:59:00,
2013-01-26 17:04:00,60.3,33.9,30.20,NNE,17,0.0,0.0,37,0.00,,---,0.00,63.00,VWS V14.01,2013-01-26 22:04:00,
2013-01-26 17:10:00,60.2,33.8,30.20,NNE,17,0.0,0.0,37,0.00,,---,0.00,40.00,VWS V14.01,2013-01-26 22:10:00,
2013-01-26 17:15:00,60.0,33.7,30.20,NNE,17,0.0,0.0,37,0.00,,---,0.00,51.00,VWS V14.01,2013-01-26 22:15:00,
2013-01-26 17:20:00,59.8,34.2,30.21,NNE,17,0.0,0.0,38,0.00,,---,0.00,42.00,VWS V14.01,2013-01-26 22:20:00,
2013-01-26 17:25:00,59.7,34.7,30.21,NNE,17,0.0,0.0,39,0.00,,---,0.00,30.00,VWS V14.01,2013-01-26 22:25:00,
2013-01-26 17:30:00,59.5,35.8,30.21,NNE,17,0.0,0.0,41,0.00,,---,0.00,23.00,VWS V14.01,2013-01-26 22:30:00,
2013-01-26 17:35:00,59.2,36.1,30.21,NNE,17,0.0,0.0,42,0.00,,---,0.00,16.00,VWS V14.01,2013-01-26 22:35:00,
2013-01-26 17:40:00,58.7,36.9,30.21,NNE,17,1.0,2.0,44,0.00,,---,0.00,11.00,VWS V14.01,2013-01-26 22:40:00,
2013-01-26 17:45:00,57.7,36.5,30.21,NNE,17,0.0,1.0,45,0.00,,---,0.00,7.00,VWS V14.01,2013-01-26 22:45:00,
2013-01-26 17:50:00,56.4,35.9,30.21,NNE,17,0.0,0.0,46,0.00,,---,0.00,5.00,VWS V14.01,2013-01-26 22:50:00,
2013-01-26 17:55:00,55.4,35.5,30.21,NNE,17,0.0,0.0,47,0.00,,---,0.00,0.00,VWS V14.01,2013-01-26 22:55:00,
2013-01-26 18:00:00,54.7,34.3,30.21,NNE,17,0.0,0.0,46,0.00,,---,0.00,0.00,VWS V14.01,2013-01-26 23:00:00,
2013-01-26 18:05:00,54.2,34.4,30.21,NNE,17,0.0,0.0,47,0.00,,---,0.00,0.00,VWS V14.01,2013-01-26 23:05:00,
2013-01-26 18:10:00,53.7,34.5,30.22,NNE,17,0.0,0.0,48,0.00,,---,0.00,0.00,VWS V14.01,2013-01-26 23:10:00,
2013-01-26 18:15:00,53.2,35.1,30.22,NNE,17,0.0,0.0,50,0.00,,---,0.00,0.00,VWS V14.01,2013-01-26 23:15:00,
2013-01-26 18:20:00,52.5,35.4,30.22,NNE,17,0.0,0.0,52,0.00,,---,0.00,0.00,VWS V14.01,2013-01-26 23:20:00,
2013-01-26 18:25:00,51.9,34.4,30.23,NNE,17,0.0,0.0,51,0.00,,---,0.00,0.00,VWS V14.01,2013-01-26 23:25:00,
2013-01-26 18:31:00,51.3,34.8,30.23,NNE,17,0.0,0.0,53,0.00,,---,0.00,0.00,VWS V14.01,2013-01-26 23:31:00,
2013-01-26 18:36:00,50.8,34.8,30.23,NNE,17,0.0,0.0,54,0.00,,---,0.00,0.00,VWS V14.01,2013-01-26 23:36:00,
2013-01-26 18:41:00,50.4,34.4,30.23,NNE,17,0.0,0.0,54,0.00,,---,0.00,0.00,VWS V14.01,2013-01-26 23:41:00,
2013-01-26 18:46:00,49.9,34.4,30.24,NNE,17,0.0,0.0,55,0.00,,---,0.00,0.00,VWS V14.01,2013-01-26 23:46:00,
2013-01-26 18:51:00,49.5,34.0,30.24,NNE,17,0.0,0.0,55,0.00,,---,0.00,0.00,VWS V14.01,2013-01-26 23:51:00,
2013-01-26 18:56:00,49.1,34.5,30.24,NNE,17,0.0,1.0,57,0.00,,---,0.00,0.00,VWS V14.01,2013-01-26 23:56:00,
2013-01-26 19:01:00,48.6,33.6,30.24,NNE,17,0.0,0.0,56,0.00,,---,0.00,0.00,VWS V14.01,2013-01-27 00:01:00,
2013-01-26 19:06:00,48.2,32.8,30.24,NNE,17,0.0,0.0,55,0.00,,---,0.00,0.00,VWS V14.01,2013-01-27 00:06:00,
2013-01-26 19:11:00,48.0,32.6,30.24,NNE,17,0.0,0.0,55,0.00,,---,0.00,0.00,VWS V14.01,2013-01-27 00:11:00,
2013-01-26 19:16:00,47.9,32.5,30.24,NNE,17,0.0,0.0,55,0.00,,---,0.00,0.00,VWS V14.01,2013-01-27 00:16:00,
2013-01-26 19:21:00,47.8,32.4,30.25,NNE,17,0.0,0.0,55,0.00,,---,0.00,0.00,VWS V14.01,2013-01-27 00:21:00,
2013-01-26 19:26:00,47.7,32.3,30.25,NNE,17,0.0,0.0,55,0.00,,---,0.00,0.00,VWS V14.01,2013-01-27 00:26:00,
2013-01-26 19:31:00,47.6,32.7,30.25,NNE,17,0.0,0.0,56,0.00,,---,0.00,0.00,VWS V14.01,2013-01-27 00:31:00,
2013-01-26 19:36:00,47.5,32.6,30.25,NNE,17,0.0,1.0,56,0.00,,---,0.00,0.00,VWS V14.01,2013-01-27 00:36:00,
2013-01-26 19:41:00,47.3,33.3,30.25,NNE,17,0.0,1.0,58,0.00,,---,0.00,0.00,VWS V14.01,2013-01-27 00:41:00,
2013-01-26 19:46:00,47.0,33.0,30.26,NNE,17,0.0,1.0,58,0.00,,---,0.00,0.00,VWS V14.01,2013-01-27 00:46:00,
2013-01-26 19:51:00,46.9,33.8,30.26,NNE,18,0.0,0.0,60,0.00,,---,0.00,0.00,VWS V14.01,2013-01-27 00:51:00,
2013-01-26 19:57:00,47.0,33.8,30.26,NNE,18,0.0,0.0,60,0.00,,---,0.00,0.00,VWS V14.01,2013-01-27 00:57:00,
2013-01-26 20:02:00,47.0,34.3,30.26,NNE,21,0.0,0.0,61,0.00,,---,0.00,0.00,VWS V14.01,2013-01-27 01:02:00,
2013-01-26 20:07:00,47.0,34.3,30.26,NNE,21,1.0,1.0,61,0.00,,---,0.00,0.00,VWS V14.01,2013-01-27 01:07:00,
2013-01-26 20:12:00,47.0,34.3,30.27,NNE,21,0.0,0.0,61,0.00,,---,0.00,0.00,VWS V14.01,2013-01-27 01:12:00,
2013-01-26 20:17:00,47.0,34.3,30.27,NNE,21,0.0,0.0,61,0.00,,---,0.00,0.00,VWS V14.01,2013-01-27 01:17:00,
2013-01-26 20:22:00,46.9,34.6,30.27,NNE,21,0.0,0.0,62,0.00,,---,0.00,0.00,VWS V14.01,2013-01-27 01:22:00,
2013-01-26 20:27:00,46.8,34.5,30.27,NNE,21,0.0,0.0,62,0.00,,---,0.00,0.00,VWS V14.01,2013-01-27 01:27:00,
2013-01-26 20:32:00,46.7,34.4,30.27,NNE,21,0.0,0.0,62,0.00,,---,0.00,0.00,VWS V14.01,2013-01-27 01:32:00,
2013-01-26 20:37:00,46.4,34.5,30.27,NNE,21,0.0,0.0,63,0.00,,---,0.00,0.00,VWS V14.01,2013-01-27 01:37:00,
2013-01-26 20:42:00,46.2,34.3,30.27,NNE,21,0.0,0.0,63,0.00,,---,0.00,0.00,VWS V14.01,2013-01-27 01:42:00,
2013-01-26 20:47:00,45.9,34.4,30.28,NNE,21,0.0,0.0,64,0.00,,---,0.00,0.00,VWS V14.01,2013-01-27 01:47:00,
2013-01-26 20:52:00,45.7,34.2,30.28,NNE,21,0.0,0.0,64,0.00,,---,0.00,0.00,VWS V14.01,2013-01-27 01:52:00,
2013-01-26 20:57:00,45.4,34.3,30.28,NNE,21,0.0,0.0,65,0.00,,---,0.00,0.00,VWS V14.01,2013-01-27 01:57:00,
2013-01-26 21:02:00,45.1,34.0,30.28,NNE,21,0.0,0.0,65,0.00,,---,0.00,0.00,VWS V14.01,2013-01-27 02:02:00,
2013-01-26 21:08:00,44.8,34.2,30.28,NNE,21,0.0,0.0,66,0.00,,---,0.00,0.00,VWS V14.01,2013-01-27 02:08:00,
2013-01-26 21:13:00,44.5,34.2,30.28,NNE,21,0.0,0.0,67,0.00,,---,0.00,0.00,VWS V14.01,2013-01-27 02:13:00,
2013-01-26 21:18:00,44.2,34.0,30.28,NNE,21,0.0,0.0,67,0.00,,---,0.00,0.00,VWS V14.01,2013-01-27 02:18:00,
2013-01-26 21:23:00,44.0,34.1,30.28,NNE,21,0.0,0.0,68,0.00,,---,0.00,0.00,VWS V14.01,2013-01-27 02:23:00,
2013-01-26 21:28:00,43.8,33.9,30.28,NNE,21,0.0,0.0,68,0.00,,---,0.00,0.00,VWS V14.01,2013-01-27 02:28:00,
2013-01-26 21:33:00,43.6,33.8,30.28,NNE,21,0.0,0.0,68,0.00,,---,0.00,0.00,VWS V14.01,2013-01-27 02:33:00,
2013-01-26 21:38:00,43.4,33.9,30.28,NNE,21,0.0,0.0,69,0.00,,---,0.00,0.00,VWS V14.01,2013-01-27 02:38:00,
2013-01-26 21:43:00,43.3,33.8,30.28,NNE,21,0.0,0.0,69,0.00,,---,0.00,0.00,VWS V14.01,2013-01-27 02:43:00,
2013-01-26 21:48:00,43.1,34.0,30.29,NNE,21,0.0,0.0,70,0.00,,---,0.00,0.00,VWS V14.01,2013-01-27 02:48:00,
2013-01-26 21:53:00,42.8,33.7,30.29,NNE,21,0.0,1.0,70,0.00,,---,0.00,0.00,VWS V14.01,2013-01-27 02:53:00,
2013-01-26 21:58:00,42.6,33.9,30.29,NNE,21,0.0,0.0,71,0.00,,---,0.00,0.00,VWS V14.01,2013-01-27 02:58:00,
2013-01-26 22:03:00,42.5,33.8,30.30,NNE,21,0.0,0.0,71,0.00,,---,0.00,0.00,VWS V14.01,2013-01-27 03:03:00,
2013-01-26 22:09:00,42.3,33.6,30.29,NNE,21,0.0,0.0,71,0.00,,---,0.00,0.00,VWS V14.01,2013-01-27 03:09:00,
2013-01-26 22:14:00,42.2,33.8,30.30,NNE,21,0.0,1.0,72,0.00,,---,0.00,0.00,VWS V14.01,2013-01-27 03:14:00,
2013-01-26 22:19:00,42.0,33.6,30.30,NNE,21,0.0,0.0,72,0.00,,---,0.00,0.00,VWS V14.01,2013-01-27 03:19:00,
2013-01-26 22:24:00,41.8,34.8,30.30,NNE,21,2.0,2.0,76,0.00,,---,0.00,0.00,VWS V14.01,2013-01-27 03:24:00,
2013-01-26 22:29:00,41.6,33.6,30.31,NNE,21,0.0,0.0,73,0.00,,---,0.00,0.00,VWS V14.01,2013-01-27 03:29:00,
2013-01-26 22:34:00,41.5,33.5,30.31,NNE,21,0.0,2.0,73,0.00,,---,0.00,0.00,VWS V14.01,2013-01-27 03:34:00,
2013-01-26 22:39:00,41.4,33.8,30.31,NNE,21,0.0,1.0,74,0.00,,---,0.00,0.00,VWS V14.01,2013-01-27 03:39:00,
2013-01-26 22:44:00,41.3,33.7,30.32,NNE,21,0.0,2.0,74,0.00,,---,0.00,0.00,VWS V14.01,2013-01-27 03:44:00,
2013-01-26 22:49:00,41.1,33.5,30.32,NNE,21,0.0,0.0,74,0.00,,---,0.00,0.00,VWS V14.01,2013-01-27 03:49:00,
2013-01-26 22:54:00,41.0,33.4,30.32,NNE,21,0.0,2.0,74,0.00,,---,0.00,0.00,VWS V14.01,2013-01-27 03:54:00,
2013-01-26 22:59:00,40.8,33.5,30.32,NNE,21,0.0,1.0,75,0.00,,---,0.00,0.00,VWS V14.01,2013-01-27 03:59:00,
2013-01-26 23:04:00,40.7,33.4,30.32,NNE,21,0.0,0.0,75,0.00,,---,0.00,0.00,VWS V14.01,2013-01-27 04:04:00,
2013-01-26 23:09:00,40.6,33.3,30.32,NNE,21,0.0,2.0,75,0.00,,---,0.00,0.00,VWS V14.01,2013-01-27 04:09:00,
2013-01-26 23:14:00,40.5,33.2,30.33,NNE,21,0.0,0.0,75,0.00,,---,0.00,0.00,VWS V14.01,2013-01-27 04:14:00,
2013-01-26 23:19:00,40.3,33.3,30.33,NNE,21,0.0,1.0,76,0.00,,---,0.00,0.00,VWS V14.01,2013-01-27 04:19:00,
2013-01-26 23:25:00,40.2,33.2,30.33,NNE,21,0.0,0.0,76,0.00,,---,0.00,0.00,VWS V14.01,2013-01-27 04:25:00,
2013-01-26 23:30:00,40.1,33.2,30.33,NNE,21,0.0,0.0,76,0.00,,---,0.00,0.00,VWS V14.01,2013-01-27 04:30:00,
2013-01-26 23:35:00,40.0,33.1,30.33,NNE,21,0.0,0.0,76,0.00,,---,0.00,0.00,VWS V14.01,2013-01-27 04:35:00,
2013-01-26 23:40:00,39.9,33.0,30.33,NNE,21,0.0,0.0,76,0.00,,---,0.00,0.00,VWS V14.01,2013-01-27 04:40:00,
2013-01-26 23:45:00,39.8,32.9,30.33,NNE,21,0.0,0.0,76,0.00,,---,0.00,0.00,VWS V14.01,2013-01-27 04:45:00,
2013-01-26 23:50:00,39.7,32.8,30.33,NNE,21,0.0,0.0,76,0.00,,---,0.00,0.00,VWS V14.01,2013-01-27 04:50:00,
2013-01-26 23:55:00,39.6,32.7,30.33,NNE,21,0.0,0.0,76,0.00,,---,0.00,0.00,VWS V14.01,2013-01-27 04:55:00,